Location: D�pe
(52.6057°N, 8.1808°E)
Time: 14:29:15
(UTC+00:00)

USA 305 - Pass Details

Date: 29 October 2020
Orbit: 569 x 577 km, 54.0° (Epoch: 22 November)

Event Time Altitude Azimuth Distance (km) Brightness Sun altitude
Rises 17:49:01 0° 290° (WNW) 2,789 7.8 -16.7°
Reaches altitude 10° 17:51:22 10° 283° (WNW) 1,886 6.8 -17.0°
Maximum altitude 17:55:25 42° 213° (SSW) 830 3.9 -17.6°
Enters shadow 17:58:08 19° 151° (SSE) 1,408 4.6 -18.0°
